SQ8NA-15 Weather Reports


time (UTC)temp
F
wind
direction
speed
knots
gust
knots
rain 1hr
in
rain 24hr
in
rain mn
in
humidity
%
barometer
mb
20260905234609 58 126 2.6 2.6 0.00 0.00 0.00 67 981.5
20260905232544 59 134 1.7 1.7 0.00 0.00 0.00 64 981.3
20260905231544 60 122 1.7 1.7 0.00 0.00 0.00 63 981.2
20260905230544 60 267 1.7 1.7 0.00 0.00 0.00 62 981.1
20260905225530 60 101 1.7 1.7 0.00 0.00 0.00 62 981.0
20260905223455 61 204 1.7 1.7 0.00 0.00 0.00 60 980.8
20260905222454 60 113 2.6 3.5 0.00 0.00 0.00 63 980.7
20260905221440 59 257 0.9 0.9 0.00 0.00 0.00 65 980.4
20260905215414 56 168 0.0 0.0 0.00 0.07 0.07 81 980.3
20260905214414 57 127 0.0 0.0 0.00 0.07 0.07 76 980.4
20260905213404 56 330 0.0 0.0 0.00 0.07 0.07 75 980.4
20260905211338 57 180 0.0 0.0 0.00 0.07 0.07 76 980.2
20260905210325 57 216 0.0 0.0 0.00 0.07 0.07 76 980.3
20260905204259 57 228 0.0 0.0 0.00 0.07 0.07 76 980.3
20260905203249 57 228 0.0 0.0 0.00 0.07 0.07 75 980.3
20260905202249 58 234 0.0 0.0 0.00 0.07 0.07 73 980.3
20260905201235 58 252 0.0 0.0 0.00 0.07 0.07 69 980.3
20260905195159 58 244 0.0 0.0 0.00 0.07 0.07 71 980.2
20260905194144 57 228 0.0 0.0 0.00 0.07 0.07 71 980.2
20260905193134 58 228 0.0 0.0 0.00 0.07 0.07 70 980.0
20260905191109 57 268 0.0 0.0 0.00 0.07 0.07 71 979.9
20260905190054 58 196 0.0 0.0 0.00 0.07 0.07 71 979.9
20260905185044 59 204 0.0 0.0 0.00 0.07 0.07 68 979.9
20260905183004 59 160 0.0 0.0 0.00 0.07 0.07 70 979.8
20260905182004 59 204 0.0 0.0 0.00 0.07 0.07 67 979.8
20260905180954 60 276 0.0 0.0 0.00 0.07 0.07 63 979.8
20260905174914 60 228 0.0 0.0 0.00 0.07 0.07 64 979.6
20260905173904 60 231 0.0 0.0 0.00 0.07 0.07 61 979.7
20260905171824 61 210 0.0 0.0 0.00 0.07 0.07 60 979.5
20260905170824 62 174 0.0 0.0 0.00 0.07 0.07 59 979.5
20260905165814 62 168 0.0 0.0 0.00 0.07 0.07 61 979.3
20260905163736 64 156 0.0 0.0 0.00 0.07 0.07 60 979.2
20260905162736 64 257 0.0 0.0 0.00 0.07 0.07 59 979.1
20260905161723 65 156 0.0 0.0 0.00 0.07 0.07 57 978.9
20260905155711 66 168 0.9 0.9 0.00 0.07 0.07 59 978.7
20260905154657 66 177 0.9 0.9 0.00 0.07 0.07 59 978.6
20260905153646 67 156 0.0 0.0 0.00 0.07 0.07 56 978.6
20260905152632 67 177 0.9 0.9 0.00 0.07 0.07 56 978.6
20260905150556 67 313 1.7 1.7 0.00 0.07 0.07 56 978.6
20260905145556 68 150 2.6 2.6 0.00 0.07 0.07 57 978.6
20260905144542 69 183 1.7 1.7 0.00 0.07 0.07 55 978.4
20260905142517 69 144 1.7 1.7 0.00 0.07 0.07 55 978.4
20260905141517 68 292 2.6 3.5 0.00 0.07 0.07 58 978.5
20260905140507 68 112 1.7 1.7 0.00 0.07 0.07 57 978.5
20260905134427 68 115 1.7 1.7 0.00 0.07 0.07 57 978.4
20260905133427 68 124 1.7 1.7 0.00 0.07 0.07 56 978.3
20260905132417 68 145 1.7 1.7 0.00 0.07 0.07 57 978.4
20260905130351 70 96 1.7 1.7 0.00 0.07 0.07 54 978.3
20260905125326 71 174 3.5 3.5 0.00 0.07 0.07 53 978.3
20260905124300 69 97 1.7 1.7 0.00 0.07 0.07 53 978.3
20260905122248 71 175 1.7 1.7 0.00 0.07 0.07 53 978.6
20260905121223 70 318 2.6 2.6 0.00 0.07 0.07 54 978.6
20260905120212 67 174 1.7 1.7 0.00 0.07 0.07 59 978.8
20260905114121 66 132 1.7 1.7 0.00 0.07 0.07 60 978.9
20260905113056 67 108 3.5 3.5 0.00 0.07 0.07 60 979.0
20260905112042 69 299 4.3 5.2 0.00 0.07 0.07 60 979.0
20260905110019 67 254 3.5 3.5 0.00 0.07 0.07 60 979.2
20260905105018 65 206 1.7 1.7 0.00 0.07 0.07 63 979.1
20260905104005 66 175 1.7 1.7 0.00 0.07 0.07 62 978.9
20260905101928 64 108 1.7 1.7 0.00 0.07 0.07 68 978.7
20260905100914 63 274 5.2 5.2 0.00 0.07 0.07 71 978.4
20260905095904 63 193 1.7 1.7 0.00 0.07 0.07 69 978.6
20260905093838 61 162 0.9 0.9 0.00 0.07 0.07 69 978.6
20260905092824 61 156 3.5 3.5 0.00 0.07 0.07 72 978.6
20260905091814 61 120 0.0 0.0 0.00 0.07 0.07 72 978.8
20260905085748 60 138 1.7 1.7 0.00 0.07 0.07 73 978.6
20260905084748 60 174 1.7 1.7 0.00 0.07 0.07 72 978.2
20260905083748 61 299 1.7 1.7 0.00 0.07 0.07 74 978.3
20260905082735 61 359 3.5 4.3 0.00 0.07 0.07 74 978.4
20260905080709 61 198 0.9 0.9 0.00 0.07 0.07 80 978.3
20260905075709 61 114 1.7 1.7 0.00 0.07 0.07 78 978.2
20260905074659 61 186 0.9 0.9 0.00 0.07 0.07 82 978.2
20260905072633 60 139 1.7 1.7 0.00 0.07 0.07 83 978.0
20260905071633 60 135 0.9 0.9 0.00 0.07 0.07 82 978.0
20260905070620 60 258 1.7 1.7 0.00 0.07 0.07 82 977.9
20260905064543 61 114 1.7 1.7 0.00 0.07 0.07 81 977.5
20260905063543 60 12 0.9 0.9 0.00 0.07 0.07 82 977.3
20260905062543 61 126 0.0 0.0 0.00 0.07 0.07 82 977.2
20260905061530 60 186 0.9 0.9 0.00 0.07 0.07 80 977.0
20260905055504 60 132 0.0 0.0 0.00 0.07 0.07 82 976.9
20260905054453 60 200 1.7 1.7 0.00 0.07 0.07 84 976.9
20260905053440 60 102 0.0 0.0 0.00 0.07 0.07 84 976.6
20260905051414 60 219 0.9 0.9 0.00 0.07 0.07 83 976.3
20260905050414 60 219 1.7 1.7 0.00 0.07 0.07 83 976.0
20260905045404 59 342 0.9 0.9 0.00 0.07 0.07 85 976.3
20260905043338 59 161 0.0 0.0 0.00 0.07 0.07 86 975.9
20260905042338 59 145 1.7 1.7 0.00 0.07 0.07 86 976.0
20260905041325 59 240 0.0 0.0 0.02 0.07 0.07 89 975.9
20260905035248 58 180 0.0 0.0 0.07 0.07 0.07 90 975.9
20260905034248 59 115 0.0 0.0 0.07 0.07 0.07 89 975.9
20260905033235 59 180 0.0 0.0 0.07 0.07 0.07 90 976.0
20260905031158 59 174 0.0 0.0 0.07 0.07 0.07 90 975.8
20260905030156 59 186 0.0 0.0 0.06 0.06 0.06 88 976.0
20260905025146 60 186 1.7 1.7 0.05 0.05 0.05 84 975.9
20260905023121 65 116 1.7 1.7 0.00 0.00 0.00 66 975.6
20260905022107 66 283 1.7 1.7 0.00 0.00 0.00 66 975.3
20260905020043 67 138 0.9 0.9 0.00 0.00 0.00 65 974.9
20260905015029 67 120 2.6 3.5 0.00 0.00 0.00 65 974.6
20260905014019 68 96 1.7 1.7 0.00 0.00 0.00 65 974.6
20260905011939 67 102 0.9 0.9 0.00 0.00 0.00 66 974.1
20260905010939 67 184 0.9 0.9 0.00 0.00 0.00 66 973.9
20260905005929 66 138 1.7 1.7 0.00 0.00 0.00 65 973.5
20260905003903 68 101 2.6 2.6 0.00 0.00 0.00 62 973.1
20260905002903 69 156 0.0 0.0 0.00 0.00 0.00 61 972.9
20260905001849 69 217 1.7 1.7 0.00 0.00 0.00 59 972.0
20260904235824 69 348 1.7 1.7 0.00 0.00 0.00 58 971.7